GFSNGP_925_temp_072.txt.gz
Temp
19 20 20 20 20 22 22 20 20 21 20 22 21 21 22 21 22 20 20 20 19 17 14 12 12 13 16 16 17 18 16 13 12 12 13 12 12 12 12 11 11 11 11 9
17 19 19 19 20 22 21 21 21 20 20 22 22 20 21 22 22 20 21 20 19 17 14 12 11 11 11 11 11 12 10 10 11 11 10 11 11 11 11 10 10 9 8 7
15 18 19 16 17 19 20 20 21 20 21 23 23 22 21 21 21 20 19 18 17 17 15 12 11 10 10 10 10 10 10 10 10 10 10 9 9 9 8 8 7 7 6 6
12 16 14 17 20 20 19 21 21 22 22 21 22 21 21 20 20 19 18 17 16 15 12 10 10 10 10 10 10 9 8 8 8 8 7 7 7 7 6 6 6 5 5 5
14 15 16 18 20 20 20 21 23 21 22 22 23 21 22 20 19 20 17 15 14 13 11 9 9 9 9 9 8 8 7 7 6 6 6 5 5 5 5 5 5 5 5 4
12 14 13 17 20 21 22 18 21 22 22 23 19 18 18 20 17 16 14 13 12 11 10 10 9 9 8 8 8 8 7 7 6 6 5 5 5 5 5 5 5 4 4 4
10 12 14 17 20 21 19 17 20 22 21 21 19 18 19 16 16 15 14 13 12 11 11 10 10 9 9 8 8 8 7 6 6 6 6 7 5 4 4 4 4 4 3 2
11 12 14 18 19 19 17 18 19 20 21 21 19 18 16 15 14 13 13 12 12 11 10 10 10 10 9 8 8 8 7 7 7 6 6 5 5 4 4 4 3 2 1 -1
13 13 16 15 16 16 16 17 18 19 18 19 17 16 15 15 14 13 12 11 11 10 10 10 10 10 8 7 8 8 7 6 6 6 5 5 4 4 3 3 2 0 -1 -3
15 16 16 16 17 15 15 15 17 17 19 18 17 15 15 13 12 11 11 11 11 10 9 9 10 9 8 8 8 8 7 6 6 5 4 4 4 4 3 2 1 -1 -3 -4
14 16 16 15 16 16 16 15 16 17 18 19 17 16 14 13 12 12 10 11 11 10 8 7 8 8 8 8 8 6 5 4 3 3 3 2 1 1 1 0 1 0 -2 -2
12 16 16 16 15 15 15 17 17 16 17 19 16 14 13 11 10 11 9 9 8 6 5 4 5 5 5 6 7 5 3 2 2 1 0 -1 -1 -2 -2 -2 -1 -2 -3 -3
16 17 15 17 16 16 16 17 17 15 15 18 17 13 11 11 10 9 8 7 4 2 1 1 2 2 3 4 4 2 0 -0 -0 -1 -1 -1 -2 -2 -4 -4 -4 -4 -5 -5
12 16 17 16 16 15 14 14 14 13 11 11 11 10 10 8 7 5 3 2 1 0 -0 -1 -2 -2 -1 1 1 -1 -2 -1 -2 -2 -2 -3 -4 -4 -5 -5 -5 -5 -5 -6
9 11 15 14 13 13 13 13 11 8 6 5 6 6 6 4 3 2 0 -1 -1 -2 -2 -2 -3 -4 -1 -0 -1 -1 -2 -3 -3 -4 -5 -5 -5 -5 -6 -6 -6 -6 -6 -7
8 10 11 12 11 10 11 9 6 3 2 1 -0 -1 -1 -2 -2 -3 -3 -3 -4 -5 -5 -5 -6 -5 -3 -3 -3 -4 -5 -6 -6 -6 -6 -7 -7 -7 -7 -7 -8 -8 -8 -8
7 7 7 7 6 5 4 3 2 1 -0 -1 -2 -3 -3 -4 -4 -5 -6 -7 -7 -7 -7 -6 -7 -6 -5 -5 -6 -6 -7 -7 -7 -7 -8 -8 -8 -9 -9 -9 -9 -9 -9 -10
3 3 2 3 3 1 -0 -1 -1 -2 -2 -3 -4 -4 -4 -5 -5 -7 -8 -8 -8 -8 -8 -7 -7 -7 -7 -7 -7 -8 -8 -8 -8 -9 -9 -9 -10 -10 -10 -10 -10 -10 -11 -11
1 0 -0 -1 -1 -2 -2 -3 -3 -4 -4 -5 -5 -6 -6 -7 -7 -8 -8 -9 -9 -9 -10 -9 -9 -9 -9 -9 -9 -9 -9 -10 -10 -10 -10 -10 -11 -10 -11 -11 -11 -12 -12 -12
-2 -3 -3 -3 -3 -4 -4 -5 -5 -5 -6 -6 -7 -7 -8 -8 -8 -9 -9 -9 -9 -10 -10 -10 -10 -10 -10 -10 -10 -10 -10 -10 -10 -11 -11 -11 -11 -11 -12 -12 -13 -13 -13 -14
-4 -4 -5 -5 -5 -5 -6 -6 -6 -6 -7 -7 -7 -8 -8 -8 -9 -9 -9 -9 -10 -10 -11 -11 -11 -11 -10 -11 -11 -11 -11 -12 -12 -12 -12 -13 -13 -13 -13 -14 -14 -14 -15 -15
-4 -5 -5 -5 -5 -6 -6 -6 -6 -7 -7 -7 -8 -8 -8 -9 -9 -9 -9 -10 -11 -11 -11 -12 -12 -12 -12 -12 -12 -13 -13 -13 -13 -14 -14 -15 -15 -15 -15 -16 -16 -16 -16 -16
-5 -5 -5 -6 -6 -6 -7 -7 -7 -7 -8 -8 -8 -8 -9 -9 -9 -10 -10 -12 -12 -12 -12 -13 -13 -12 -13 -13 -14 -14 -14 -15 -15 -15 -15 -16 -16 -17 -17 -17 -17 -17 -17 -18
-5 -5 -6 -6 -6 -6 -7 -7 -8 -8 -8 -9 -9 -10 -10 -11 -11 -12 -12 -12 -12 -13 -13 -13 -14 -14 -14 -15 -15 -15 -16 -16 -16 -17 -17 -17 -17 -18 -18 -18 -19 -19 -19 -20
-7 -7 -7 -6 -6 -7 -7 -8 -8 -9 -9 -10 -10 -11 -11 -12 -12 -12 -13 -13 -14 -14 -14 -15 -15 -15 -15 -16 -16 -17 -17 -17 -18 -18 -18 -18 -19 -19 -19 -20 -20 -21 -21 -21
-8 -9 -9 -9 -9 -9 -8 -9 -9 -10 -10 -11 -12 -12 -12 -13 -13 -13 -14 -14 -14 -15 -16 -16 -16 -17 -17 -17 -17 -18 -18 -18 -19 -19 -20 -20 -20 -20 -21 -21 -21 -22 -22 -23
-9 -10 -10 -10 -11 -11 -11 -11 -11 -12 -13 -14 -14 -14 -14 -14 -14 -15 -15 -15 -16 -16 -17 -17 -17 -18 -18 -18 -18 -19 -19 -19 -20 -20 -20 -21 -21 -21 -22 -22 -22 -23 -23 -23

GFSNGP_925_temp_075.txt.gz
Temp
18 20 19 19 19 19 18 20 19 19 19 21 21 21 21 20 19 19 18 18 17 17 15 14 16 18 18 18 17 16 15 15 15 15 13 15 14 13 13 13 12 12 11 10
17 18 20 19 19 18 18 19 19 20 19 20 21 20 20 20 20 20 19 19 17 16 14 13 13 13 14 14 16 16 15 13 12 13 12 13 13 13 12 12 11 10 10 10
15 17 17 15 16 19 18 18 18 19 19 21 20 20 20 20 19 20 19 19 16 17 15 13 12 12 12 11 12 13 11 10 10 11 11 11 11 11 10 9 9 9 8 8
13 15 13 17 18 19 19 19 19 19 20 20 20 22 20 19 20 18 18 18 17 17 12 12 11 10 10 10 11 10 10 9 10 9 9 8 8 8 8 7 7 7 6 6
12 13 16 17 18 18 17 18 19 19 19 20 20 20 20 19 17 18 17 17 14 14 12 11 11 9 10 9 9 9 8 8 8 8 8 7 7 6 6 6 6 6 5 5
11 13 12 15 19 20 19 15 19 20 20 19 19 18 18 19 18 16 15 12 11 10 10 10 9 10 10 9 9 8 8 8 8 7 7 7 6 6 5 5 5 4 4 4
12 12 13 15 18 19 16 15 18 19 21 19 18 17 18 18 16 14 13 12 11 10 9 9 9 9 9 9 8 8 8 7 7 7 6 6 5 5 5 4 4 3 3 2
10 11 13 16 17 18 16 17 19 17 19 18 16 16 17 16 14 13 11 10 10 9 9 8 8 9 8 8 8 8 7 6 6 6 5 5 5 4 4 3 2 1 1 -1
14 13 15 15 18 16 16 16 17 17 16 16 16 16 14 14 13 12 11 10 9 9 8 8 8 9 7 7 7 7 6 6 5 5 4 4 4 3 3 3 1 -2 -2 -3
14 16 15 16 15 15 15 16 16 16 17 16 17 16 15 12 11 10 10 9 9 9 8 7 8 8 8 7 7 6 5 4 4 4 3 3 3 3 2 1 -1 -2 -3 -4
14 14 15 15 14 16 14 15 16 17 17 16 15 16 14 12 11 10 9 9 9 8 7 6 7 6 6 6 7 5 4 3 3 3 3 1 1 0 1 -0 1 -0 -2 -3
13 15 15 15 15 15 15 16 17 16 16 17 16 16 12 10 9 9 8 7 5 4 4 4 5 5 5 6 7 5 2 0 -0 -1 -2 -2 -3 -4 -3 -2 -1 -1 -2 -3
10 11 13 14 15 14 15 16 15 13 13 16 14 12 10 8 7 5 4 3 2 1 1 1 1 1 2 3 3 1 -1 -2 -3 -3 -3 -3 -3 -4 -5 -6 -5 -5 -5 -5
9 8 14 16 15 14 13 11 10 8 7 8 9 8 7 4 3 2 1 0 -1 -2 -2 -2 -3 -3 -2 -1 -1 -2 -3 -3 -3 -4 -3 -3 -4 -5 -5 -5 -5 -6 -6 -7
6 6 8 11 10 10 10 9 7 5 3 3 3 3 2 1 -1 -1 -2 -2 -3 -4 -4 -4 -4 -4 -3 -3 -3 -3 -2 -3 -3 -4 -5 -5 -5 -5 -6 -6 -6 -6 -7 -7
5 7 7 7 6 6 7 6 3 2 0 -1 -2 -2 -3 -3 -4 -4 -4 -4 -4 -5 -5 -6 -6 -5 -3 -2 -3 -5 -5 -5 -6 -6 -6 -7 -7 -7 -7 -8 -8 -8 -8 -8
4 4 3 5 2 1 1 1 1 -0 -1 -2 -3 -3 -4 -5 -5 -6 -7 -7 -7 -7 -7 -7 -7 -6 -5 -5 -6 -7 -7 -7 -8 -8 -8 -9 -9 -9 -9 -9 -9 -10 -10 -10
2 2 1 1 0 -0 -1 -2 -2 -3 -3 -4 -5 -5 -6 -6 -7 -7 -8 -8 -9 -9 -9 -8 -8 -7 -7 -7 -8 -8 -8 -9 -9 -10 -10 -10 -10 -10 -10 -10 -11 -11 -11 -12
-1 -1 -1 -1 -2 -2 -3 -3 -4 -5 -6 -6 -7 -7 -7 -8 -8 -9 -9 -9 -9 -10 -10 -10 -9 -9 -9 -9 -9 -9 -10 -10 -10 -11 -11 -11 -11 -11 -12 -12 -12 -13 -13 -13
-3 -4 -4 -4 -4 -4 -5 -6 -6 -6 -7 -7 -7 -8 -8 -9 -9 -10 -10 -10 -11 -11 -11 -10 -10 -10 -10 -10 -10 -11 -11 -11 -12 -12 -12 -12 -13 -13 -14 -14 -14 -14 -15 -15
-5 -5 -5 -5 -6 -6 -6 -7 -7 -7 -8 -8 -8 -8 -9 -9 -10 -10 -11 -11 -12 -12 -11 -11 -11 -11 -11 -12 -12 -12 -12 -13 -13 -14 -14 -14 -15 -15 -15 -16 -16 -16 -16 -16
-5 -5 -6 -6 -6 -6 -7 -7 -7 -8 -8 -8 -9 -9 -9 -11 -11 -12 -12 -12 -13 -12 -12 -13 -13 -12 -13 -13 -13 -13 -14 -14 -15 -15 -15 -16 -16 -17 -17 -17 -17 -17 -17 -18
-6 -6 -6 -7 -7 -7 -8 -8 -8 -9 -9 -10 -10 -10 -10 -10 -11 -12 -12 -13 -13 -13 -14 -14 -14 -14 -14 -14 -15 -15 -15 -16 -16 -17 -17 -17 -18 -18 -18 -19 -19 -19 -20 -20
-6 -6 -7 -7 -7 -7 -8 -9 -9 -10 -10 -11 -11 -11 -12 -12 -13 -14 -14 -14 -14 -14 -15 -15 -15 -15 -15 -16 -16 -16 -17 -17 -18 -18 -18 -18 -19 -19 -20 -20 -20 -21 -21 -21
-8 -7 -7 -7 -8 -8 -9 -9 -10 -10 -11 -11 -12 -12 -12 -13 -13 -14 -14 -15 -15 -15 -16 -16 -16 -16 -17 -17 -17 -17 -18 -18 -19 -19 -19 -20 -20 -21 -21 -21 -22 -22 -22 -23
-9 -9 -9 -9 -9 -9 -10 -10 -11 -12 -12 -13 -14 -14 -14 -14 -14 -14 -15 -15 -16 -16 -17 -17 -17 -18 -18 -18 -18 -19 -19 -19 -20 -20 -20 -21 -21 -22 -22 -22 -22 -23 -23 -23
-10 -10 -11 -11 -12 -12 -12 -13 -14 -14 -15 -15 -15 -15 -15 -15 -15 -16 -16 -16 -17 -17 -18 -18 -19 -19 -19 -19 -20 -20 -20 -20 -21 -21 -21 -22 -22 -22 -23 -23 -23 -23 -23 -24

GFSNGP_925_temp_081.txt.gz
Temp
13 14 15 16 18 20 19 20 19 20 21 22 22 23 23 21 21 22 22 20 19 19 18 18 16 15 15 15 14 14 13 13 14 14 14 15 14 13 13 14 14 14 13 13
12 14 15 15 18 19 19 19 19 19 19 21 22 22 22 22 20 22 22 21 20 19 18 17 16 16 15 14 14 13 13 13 14 14 14 14 13 12 12 13 13 13 12 12
13 13 12 15 17 18 19 19 20 19 20 21 21 20 21 21 19 20 21 21 20 20 19 18 17 15 15 15 14 13 13 13 13 13 13 13 12 11 11 12 12 12 12 12
12 11 13 17 17 19 19 20 19 19 20 21 21 21 20 21 20 20 20 20 20 19 19 17 15 15 14 14 14 14 14 14 13 12 11 11 11 11 12 12 11 10 9 9
11 12 11 15 17 18 18 19 19 19 20 20 21 19 21 20 19 18 19 19 20 20 18 14 13 12 12 12 12 12 12 11 11 10 11 11 10 10 9 8 7 7 6 6
11 12 12 14 16 18 18 17 18 18 18 18 18 19 19 17 17 17 17 16 17 16 14 13 12 12 11 11 10 10 10 10 11 11 10 9 9 7 6 6 5 4 4 3
12 12 14 15 16 17 17 18 17 18 18 17 18 19 18 15 15 15 14 13 11 12 12 12 11 11 11 10 9 9 9 9 9 9 8 7 6 5 5 4 3 2 2 1
12 12 13 15 16 16 17 15 16 17 17 17 16 15 16 14 13 12 11 10 11 11 10 10 10 10 10 9 8 7 7 7 6 6 5 5 5 4 3 3 1 -1 -1 -2
13 14 14 14 16 16 15 15 17 16 17 17 16 15 16 14 11 10 10 9 9 9 9 9 9 9 7 6 7 6 6 5 5 5 4 4 4 2 1 0 -1 -2 -3 -4
13 14 13 14 15 14 15 15 16 15 16 16 15 14 14 12 10 9 9 9 8 7 7 6 7 7 6 6 6 5 4 3 3 3 2 2 2 1 0 -0 -1 -2 -4 -5
12 13 13 14 14 12 12 11 13 15 15 15 15 13 12 10 9 8 7 7 7 6 5 5 5 5 5 4 4 3 2 1 -0 -1 -1 -1 -2 -1 -1 -1 -0 -2 -4 -5
12 10 9 11 11 10 9 10 12 14 14 11 12 10 8 7 6 6 5 4 3 2 1 1 2 2 2 3 4 1 -1 -1 -2 -3 -3 -3 -4 -4 -3 -2 -2 -2 -3 -3
7 7 7 8 9 8 8 7 6 6 8 7 7 6 5 3 2 1 1 1 -0 -1 -1 -1 -1 -1 -1 -0 -0 -1 -3 -4 -4 -4 -4 -4 -4 -4 -5 -6 -5 -5 -5 -6
5 5 8 7 6 6 7 6 4 3 3 3 2 1 1 0 -1 -2 -2 -2 -2 -2 -2 -3 -3 -3 -2 -2 -2 -3 -4 -4 -4 -4 -4 -4 -4 -4 -4 -4 -5 -6 -7 -7
4 4 5 5 4 4 5 5 3 2 1 0 -1 -1 -1 -1 -2 -3 -4 -4 -4 -4 -4 -4 -4 -4 -4 -4 -4 -4 -5 -5 -5 -5 -5 -5 -5 -5 -5 -5 -6 -7 -8 -9
3 4 4 3 2 1 2 2 1 -0 -1 -1 -2 -3 -4 -4 -5 -6 -6 -5 -5 -6 -7 -7 -7 -6 -6 -5 -6 -6 -6 -6 -6 -7 -7 -7 -7 -7 -7 -7 -8 -9 -9 -10
1 2 1 1 1 -1 -1 -1 -1 -2 -2 -3 -4 -4 -5 -6 -6 -7 -8 -8 -8 -8 -8 -8 -8 -7 -6 -6 -6 -7 -8 -8 -8 -8 -8 -8 -8 -9 -9 -9 -10 -11 -12 -13
-1 -0 -0 -0 -1 -1 -2 -2 -3 -4 -4 -6 -7 -7 -7 -7 -7 -8 -9 -9 -9 -9 -9 -9 -8 -8 -8 -8 -8 -9 -9 -9 -9 -10 -10 -10 -11 -11 -11 -11 -11 -12 -13 -14
-3 -3 -3 -2 -3 -3 -4 -4 -5 -6 -7 -8 -8 -9 -9 -9 -9 -9 -9 -10 -10 -10 -11 -10 -10 -10 -10 -10 -10 -10 -11 -11 -11 -12 -12 -13 -13 -13 -13 -14 -14 -15 -15 -15
-4 -5 -5 -6 -6 -6 -6 -7 -8 -8 -9 -9 -10 -10 -10 -10 -11 -11 -11 -12 -12 -12 -12 -11 -11 -11 -11 -11 -11 -12 -13 -13 -13 -14 -14 -15 -15 -16 -16 -16 -16 -17 -17 -18
-6 -6 -7 -7 -7 -8 -8 -8 -9 -10 -10 -10 -10 -11 -11 -11 -11 -11 -11 -12 -13 -13 -12 -12 -13 -13 -13 -13 -13 -14 -15 -15 -16 -16 -16 -17 -17 -18 -18 -18 -19 -19 -19 -19
-7 -7 -8 -8 -8 -8 -9 -9 -10 -10 -11 -11 -11 -11 -12 -12 -13 -14 -14 -14 -14 -14 -14 -15 -14 -13 -13 -14 -15 -16 -16 -17 -17 -18 -18 -18 -18 -19 -19 -20 -20 -20 -21 -21
-7 -8 -8 -9 -9 -10 -10 -11 -11 -11 -12 -12 -12 -12 -12 -12 -13 -13 -14 -15 -15 -15 -16 -16 -15 -15 -15 -15 -16 -17 -17 -17 -18 -18 -19 -19 -20 -21 -21 -21 -22 -22 -22 -22
-8 -8 -9 -9 -9 -9 -10 -11 -11 -12 -12 -13 -13 -13 -14 -14 -15 -16 -16 -15 -15 -16 -16 -16 -16 -16 -16 -17 -17 -18 -18 -19 -19 -19 -20 -20 -20 -21 -21 -21 -22 -22 -22 -22
-9 -9 -9 -9 -10 -10 -11 -11 -12 -13 -13 -14 -14 -15 -15 -15 -16 -17 -17 -17 -16 -17 -17 -17 -17 -17 -18 -18 -19 -19 -19 -19 -20 -20 -21 -21 -21 -21 -22 -22 -22 -22 -22 -22
-10 -11 -11 -11 -11 -11 -11 -12 -13 -13 -14 -15 -16 -16 -17 -17 -17 -17 -17 -17 -18 -18 -18 -18 -18 -19 -19 -19 -19 -20 -20 -20 -21 -21 -21 -22 -22 -22 -22 -22 -22 -22 -22 -22
-11 -11 -12 -12 -13 -14 -13 -13 -13 -14 -15 -16 -17 -17 -17 -17 -17 -17 -18 -18 -18 -19 -19 -19 -19 -19 -20 -20 -20 -20 -21 -21 -21 -21 -22 -22 -22 -22 -22 -22 -22 -22 -22 -23

GFSNGP_925_temp_084.txt.gz
Temp
17 17 18 18 18 19 20 22 21 22 23 24 25 26 27 27 26 26 27 26 24 24 24 23 22 21 20 20 18 17 17 16 16 15 15 15 15 15 14 15 15 15 15 15
14 16 18 17 18 19 20 21 22 23 23 25 26 26 26 26 26 25 26 25 25 24 24 23 22 22 21 20 19 18 17 17 17 16 16 16 16 16 15 14 15 15 14 15
14 17 16 16 18 19 21 22 22 21 23 25 24 25 25 26 26 25 25 24 23 24 24 24 22 21 21 20 19 18 18 17 17 17 17 17 16 16 16 14 14 13 14 14
13 14 14 17 15 17 20 22 23 23 23 24 25 26 26 24 24 23 22 22 22 23 24 24 23 21 21 20 19 18 18 18 17 17 17 17 17 17 15 12 11 11 11 11
12 15 16 14 14 14 17 21 23 23 24 24 24 24 24 22 21 21 21 21 22 21 22 22 23 23 21 20 19 18 18 18 17 17 16 15 13 11 10 11 10 9 8 7
13 13 15 16 16 15 17 18 21 21 21 21 22 21 23 20 20 20 20 19 17 15 18 19 18 19 20 20 19 19 18 17 15 13 11 11 10 10 8 8 6 5 4 4
13 12 16 17 17 17 14 14 17 18 21 21 21 20 20 19 19 18 17 16 14 14 16 18 16 17 18 18 17 15 12 11 10 10 10 9 8 7 6 5 3 2 1 0
12 12 14 17 18 15 13 16 18 17 19 19 20 21 21 18 17 16 14 12 13 13 12 13 15 15 14 12 9 8 7 7 7 7 7 6 6 4 3 2 0 -1 -2 -3
14 16 16 16 15 16 16 16 16 17 19 19 20 20 20 17 15 12 11 10 10 10 9 10 11 11 8 7 6 6 6 4 4 4 4 3 3 1 0 -0 -1 -2 -3 -4
15 16 16 15 15 13 14 14 15 16 18 19 19 20 18 15 13 12 9 9 8 7 6 6 6 6 5 5 5 4 3 2 2 1 1 1 0 0 -1 -1 -2 -3 -4 -5
16 16 16 18 15 12 12 13 13 15 17 18 18 18 16 13 10 9 8 7 6 5 4 4 4 4 4 4 4 2 1 -0 -1 -2 -2 -2 -2 -2 -2 -2 -2 -3 -5 -5
15 10 11 14 12 11 11 11 10 12 15 13 15 13 11 9 7 6 5 3 2 2 1 1 1 2 3 3 2 1 -0 -1 -2 -2 -3 -3 -4 -4 -4 -3 -3 -4 -4 -4
10 8 10 11 11 9 9 9 8 9 9 10 9 9 8 5 2 1 1 0 -0 -1 -1 -1 -1 -1 -1 1 1 -0 -2 -2 -3 -3 -3 -4 -4 -5 -5 -6 -6 -6 -6 -6
6 7 10 9 7 7 8 9 7 6 6 6 5 4 3 1 -0 -1 -2 -2 -2 -3 -3 -3 -3 -3 -2 -1 -2 -2 -3 -3 -4 -4 -4 -4 -4 -4 -4 -4 -5 -6 -7 -7
5 5 5 5 5 5 7 7 7 5 4 3 2 2 1 0 -1 -2 -3 -4 -4 -5 -5 -5 -5 -5 -4 -4 -4 -5 -5 -5 -5 -5 -4 -4 -4 -4 -4 -5 -6 -7 -7 -8
3 4 4 3 3 2 3 4 4 2 2 1 0 -1 -3 -4 -4 -5 -6 -5 -5 -6 -6 -7 -6 -6 -6 -5 -5 -6 -6 -5 -5 -5 -5 -5 -5 -5 -5 -6 -6 -7 -8 -8
2 4 3 2 1 0 -0 1 1 1 -0 -1 -2 -4 -5 -5 -6 -7 -7 -8 -8 -8 -8 -8 -8 -7 -6 -6 -6 -7 -7 -7 -7 -7 -6 -6 -7 -7 -7 -8 -8 -9 -11 -12
-0 0 0 0 -0 -1 -2 -2 -2 -3 -3 -4 -5 -6 -6 -6 -7 -8 -8 -9 -9 -10 -9 -9 -8 -8 -8 -8 -7 -8 -8 -8 -8 -8 -8 -8 -8 -8 -8 -9 -9 -10 -11 -13
-2 -2 -2 -2 -2 -2 -3 -4 -6 -7 -8 -8 -8 -8 -9 -9 -9 -9 -9 -9 -9 -9 -10 -10 -10 -10 -10 -9 -9 -9 -9 -9 -9 -9 -10 -10 -10 -10 -10 -11 -11 -12 -12 -13
-3 -4 -5 -5 -5 -5 -6 -7 -8 -9 -9 -9 -9 -9 -10 -10 -10 -11 -11 -11 -11 -11 -11 -11 -11 -11 -11 -11 -10 -10 -10 -10 -11 -11 -11 -12 -12 -13 -14 -14 -13 -13 -14 -14
-5 -6 -6 -7 -8 -8 -9 -9 -9 -10 -10 -10 -10 -10 -11 -11 -10 -10 -9 -10 -12 -13 -13 -12 -11 -12 -12 -11 -12 -12 -12 -13 -13 -13 -13 -14 -14 -14 -15 -15 -15 -15 -16 -16
-6 -7 -7 -8 -8 -8 -9 -9 -10 -10 -10 -11 -11 -11 -11 -12 -12 -13 -13 -12 -13 -14 -13 -14 -14 -15 -14 -13 -14 -14 -14 -14 -14 -15 -15 -15 -15 -15 -16 -16 -16 -17 -17 -17
-7 -8 -8 -9 -9 -9 -10 -10 -11 -11 -11 -12 -12 -12 -12 -12 -12 -12 -12 -14 -14 -15 -15 -16 -16 -16 -16 -15 -15 -16 -16 -16 -16 -16 -16 -17 -17 -17 -17 -18 -18 -18 -18 -19
-8 -8 -8 -9 -9 -9 -9 -10 -11 -11 -12 -12 -13 -13 -12 -13 -14 -15 -16 -17 -17 -16 -17 -17 -17 -17 -17 -16 -17 -17 -17 -17 -17 -18 -18 -18 -18 -18 -19 -19 -19 -19 -20 -20
-8 -8 -9 -9 -9 -10 -10 -11 -11 -12 -12 -13 -13 -13 -14 -14 -14 -15 -16 -17 -17 -17 -17 -17 -18 -18 -17 -18 -18 -18 -18 -18 -18 -18 -18 -19 -19 -19 -19 -20 -21 -21 -21 -21
-9 -9 -10 -10 -9 -10 -10 -10 -11 -12 -12 -13 -14 -15 -15 -16 -16 -17 -17 -18 -18 -18 -18 -18 -18 -18 -18 -18 -19 -19 -19 -19 -19 -20 -20 -20 -20 -20 -21 -22 -22 -22 -22 -22
-9 -9 -10 -11 -11 -11 -11 -11 -11 -12 -13 -14 -15 -15 -16 -17 -17 -17 -18 -18 -18 -18 -18 -18 -19 -19 -19 -19 -19 -19 -19 -20 -21 -21 -21 -21 -21 -21 -22 -23 -23 -23 -23 -23

GFSNGP_925_temp_087.txt.gz
Temp
18 19 19 20 20 21 21 21 21 22 24 25 26 27 27 28 29 28 28 29 28 27 27 27 25 24 23 22 21 20 20 19 19 18 18 17 17 17 16 16 16 16 16 17
17 18 19 19 20 21 21 22 22 22 23 26 27 27 27 28 28 28 28 28 28 27 27 26 26 24 24 23 21 20 20 19 19 18 18 18 17 17 17 16 16 16 17 17
14 18 18 17 20 21 21 21 21 22 23 25 26 26 26 26 27 27 27 27 27 27 27 27 26 25 24 23 22 21 20 20 19 18 18 18 17 17 17 16 16 16 16 16
14 15 14 19 20 18 17 18 20 22 24 25 26 27 27 27 27 25 25 25 25 26 25 26 26 25 24 23 23 21 21 20 20 19 19 18 18 18 18 17 16 15 15 14
13 15 17 18 20 18 17 16 19 22 25 26 26 26 26 27 25 24 23 23 23 22 22 23 24 25 25 23 23 22 21 21 20 20 19 19 19 18 18 16 12 11 11 10
14 14 15 17 19 17 17 16 15 17 21 23 23 22 21 23 22 22 22 22 20 20 19 20 22 23 25 23 23 22 21 21 21 20 19 19 19 12 9 10 9 8 6 4
13 14 16 17 19 18 15 13 13 14 18 16 22 22 21 22 22 21 20 19 18 18 18 17 20 20 22 23 23 22 21 20 20 19 17 12 9 8 7 5 3 2 1 -0
13 14 13 18 18 15 13 14 14 13 14 15 14 22 22 21 20 19 18 17 16 14 13 14 16 17 19 16 11 11 9 9 8 9 8 7 6 4 3 1 -0 -2 -2 -3
16 16 14 17 15 15 15 15 16 16 17 17 18 21 22 20 19 16 14 13 11 10 8 8 10 10 8 7 7 7 6 4 4 4 3 3 2 0 -0 -1 -2 -3 -3 -4
12 13 13 16 14 15 15 14 14 16 18 19 19 21 21 19 17 14 11 10 8 7 6 5 5 5 5 4 4 3 1 1 0 0 -0 -0 -0 -0 -1 -2 -2 -3 -4 -5
17 14 15 13 14 13 14 14 13 14 16 16 18 18 18 15 12 9 7 5 5 4 3 3 3 3 3 2 2 1 -0 -1 -1 -2 -3 -3 -3 -3 -3 -2 -3 -4 -5 -4
13 12 13 14 13 11 12 12 11 11 12 13 14 13 11 7 5 4 3 2 2 1 1 0 0 0 1 1 0 -0 -1 -2 -2 -3 -3 -4 -4 -5 -4 -4 -3 -4 -4 -4
9 10 11 11 12 10 10 11 11 10 10 10 10 9 6 2 1 -0 -0 -1 -1 -1 -1 -2 -1 -1 0 0 -1 -1 -2 -2 -3 -3 -3 -4 -4 -5 -5 -6 -6 -6 -6 -6
8 9 11 8 7 7 7 10 10 10 8 7 7 5 2 1 -1 -2 -2 -3 -2 -3 -4 -4 -4 -4 -3 -2 -2 -3 -3 -3 -3 -4 -4 -4 -4 -5 -5 -6 -6 -7 -8 -8
6 7 6 6 7 6 6 6 8 7 6 5 2 1 1 0 -1 -3 -3 -4 -4 -5 -5 -5 -5 -5 -4 -4 -4 -4 -4 -4 -4 -3 -3 -4 -4 -5 -6 -6 -7 -8 -8 -8
4 6 6 6 5 5 4 4 4 4 3 2 1 -2 -3 -4 -4 -5 -6 -6 -5 -6 -6 -6 -6 -6 -5 -5 -5 -5 -5 -5 -4 -4 -4 -4 -5 -5 -6 -6 -7 -8 -9 -8
3 4 4 4 4 3 1 1 1 0 0 -1 -3 -4 -5 -5 -6 -7 -7 -8 -8 -7 -7 -7 -6 -6 -6 -6 -6 -6 -6 -6 -6 -6 -6 -6 -6 -6 -7 -8 -9 -10 -11 -11
0 1 1 2 2 2 0 -1 -2 -3 -4 -5 -6 -7 -7 -7 -7 -8 -8 -8 -8 -8 -8 -8 -7 -7 -7 -7 -6 -7 -7 -7 -7 -7 -7 -7 -7 -7 -7 -8 -8 -9 -10 -11
-1 -2 -2 -2 -1 -1 -1 -3 -5 -6 -7 -8 -8 -9 -9 -9 -9 -8 -8 -8 -8 -8 -9 -9 -9 -8 -8 -8 -7 -7 -7 -7 -7 -8 -8 -8 -8 -8 -9 -9 -9 -10 -11 -11
-3 -4 -4 -5 -5 -5 -6 -7 -7 -7 -8 -8 -8 -8 -8 -9 -9 -10 -11 -11 -11 -10 -10 -9 -9 -9 -9 -8 -8 -8 -9 -9 -9 -9 -9 -10 -10 -11 -12 -11 -11 -11 -12 -12
-5 -5 -6 -6 -7 -8 -8 -8 -8 -9 -9 -9 -10 -10 -11 -10 -9 -9 -10 -11 -11 -12 -11 -11 -10 -10 -10 -9 -10 -10 -10 -10 -10 -11 -11 -11 -12 -12 -12 -12 -13 -13 -13 -14
-6 -6 -7 -7 -7 -8 -8 -8 -9 -9 -9 -10 -10 -10 -11 -11 -12 -12 -12 -12 -12 -13 -12 -13 -13 -13 -12 -11 -11 -11 -12 -12 -12 -12 -12 -12 -12 -13 -13 -14 -14 -14 -14 -15
-6 -7 -8 -8 -8 -9 -9 -10 -10 -10 -11 -11 -12 -12 -12 -12 -11 -11 -12 -13 -13 -14 -14 -14 -14 -14 -13 -13 -13 -13 -13 -13 -13 -14 -14 -14 -14 -14 -15 -15 -15 -15 -16 -16
-7 -7 -7 -8 -8 -9 -9 -10 -10 -11 -12 -12 -12 -11 -11 -12 -13 -13 -14 -16 -16 -16 -16 -16 -15 -15 -14 -14 -14 -14 -14 -14 -15 -15 -15 -15 -15 -16 -16 -17 -17 -16 -17 -18
-7 -7 -8 -8 -8 -9 -10 -10 -11 -11 -11 -12 -12 -13 -12 -13 -13 -14 -14 -15 -15 -15 -16 -17 -16 -16 -15 -15 -15 -16 -16 -16 -16 -16 -16 -16 -16 -16 -17 -17 -18 -19 -19 -18
-7 -7 -8 -8 -8 -8 -9 -9 -9 -10 -11 -11 -12 -13 -13 -14 -15 -15 -15 -15 -15 -15 -16 -16 -16 -16 -16 -16 -16 -16 -16 -16 -17 -18 -17 -17 -17 -17 -18 -19 -19 -19 -19 -20
-7 -7 -8 -8 -9 -9 -9 -9 -9 -10 -11 -12 -13 -13 -14 -15 -15 -15 -15 -15 -15 -16 -16 -16 -17 -17 -17 -16 -17 -17 -17 -17 -18 -19 -18 -18 -18 -19 -19 -20 -20 -20 -21 -21

GFSNGP_925_temp_090.txt.gz
Temp
17 18 19 19 19 20 21 22 21 21 22 24 25 26 26 27 27 28 28 28 27 27 27 26 25 23 22 20 19 19 19 17 16 15 15 15 15 15 16 16 15 15 16 16
16 18 18 18 19 20 20 21 22 22 22 25 25 26 26 27 27 28 28 28 28 28 27 27 26 24 23 21 19 19 19 19 18 17 16 16 16 16 16 16 16 16 16 16
14 16 17 16 18 20 20 21 22 20 21 22 23 24 25 27 27 27 27 27 26 25 26 27 26 26 24 23 21 20 20 20 19 19 18 17 17 17 16 16 16 16 16 16
13 14 13 18 21 20 20 20 20 21 21 22 20 24 26 26 25 26 25 24 24 23 22 23 24 26 25 24 22 21 20 20 20 19 18 18 18 17 17 16 16 15 16 16
12 14 16 17 19 20 19 18 16 15 16 16 19 24 25 24 24 23 23 22 21 21 21 20 21 23 25 24 24 22 21 20 20 19 19 18 18 17 17 17 16 16 14 14
13 13 14 17 16 18 19 17 15 13 13 14 17 20 19 22 22 22 21 20 20 19 19 19 20 21 22 24 24 23 22 21 20 20 19 19 18 18 15 14 9 9 8 8
12 12 15 17 14 13 15 14 14 14 12 13 13 15 14 15 22 21 20 18 17 16 15 14 16 17 19 18 20 23 23 21 20 20 17 14 12 9 9 8 5 3 3 1
13 13 13 16 17 13 13 15 15 15 13 13 14 16 16 15 18 17 16 14 12 12 10 9 11 13 11 9 8 9 14 9 8 8 9 9 9 6 4 2 -0 -2 -2 -3
14 15 14 10 13 15 15 14 13 13 14 14 15 17 16 13 13 12 11 9 8 7 6 5 5 6 7 5 6 5 4 4 5 5 4 3 2 1 0 -0 -2 -3 -3 -4
13 15 14 12 13 13 14 13 12 13 13 14 14 14 14 13 11 8 6 5 4 4 3 2 3 2 2 2 2 3 2 0 0 0 -0 -0 0 -0 -1 -2 -3 -3 -4 -4
13 13 13 11 12 11 12 12 12 12 12 12 13 11 9 7 6 4 4 2 2 1 1 1 1 1 1 0 0 -1 -1 -2 -2 -3 -3 -3 -3 -3 -3 -3 -3 -4 -4 -4
10 11 12 10 10 10 10 11 11 11 10 11 9 7 5 3 2 1 1 0 0 -0 -0 -0 -0 -0 1 1 -1 -1 -2 -3 -3 -3 -4 -4 -4 -5 -5 -5 -5 -5 -5 -5
9 10 10 9 9 9 8 9 10 10 8 8 6 4 2 0 -1 -1 -1 -1 -2 -3 -3 -3 -3 -2 -1 1 1 -1 -2 -3 -4 -4 -4 -5 -5 -6 -6 -7 -6 -6 -6 -6
8 9 9 8 7 8 8 8 9 8 6 4 3 2 1 -1 -2 -3 -3 -4 -4 -4 -4 -4 -4 -4 -3 -2 -2 -3 -3 -4 -4 -4 -5 -5 -6 -6 -7 -7 -7 -8 -8 -7
6 8 8 8 8 7 6 6 7 5 4 2 0 -1 -2 -3 -4 -5 -5 -5 -5 -5 -5 -5 -5 -4 -4 -3 -3 -3 -3 -3 -4 -4 -5 -6 -6 -7 -7 -8 -8 -8 -8 -8
5 7 7 7 6 5 4 3 3 2 1 -0 -2 -3 -5 -6 -6 -7 -7 -7 -6 -6 -6 -5 -5 -5 -5 -4 -4 -4 -4 -4 -4 -5 -5 -5 -6 -7 -8 -9 -9 -9 -9 -8
2 2 2 2 2 3 1 1 -0 -1 -2 -3 -4 -5 -6 -7 -7 -7 -8 -8 -7 -7 -7 -6 -6 -6 -5 -5 -5 -6 -6 -6 -6 -6 -6 -7 -8 -8 -9 -10 -10 -11 -11 -10
-0 -0 -0 -0 -0 0 -0 -2 -3 -4 -5 -6 -7 -7 -7 -7 -7 -8 -8 -8 -8 -8 -8 -8 -7 -6 -6 -6 -7 -7 -7 -7 -7 -7 -7 -7 -8 -8 -8 -9 -10 -11 -11 -11
-2 -3 -3 -3 -3 -3 -3 -4 -5 -6 -7 -8 -8 -8 -9 -9 -10 -10 -10 -9 -9 -9 -9 -9 -8 -8 -8 -7 -7 -7 -8 -8 -8 -8 -9 -9 -9 -9 -10 -10 -11 -11 -12 -12
-4 -4 -5 -6 -7 -6 -6 -7 -7 -7 -8 -8 -8 -8 -8 -9 -10 -10 -11 -11 -11 -11 -10 -10 -10 -10 -9 -9 -9 -9 -9 -9 -10 -10 -10 -11 -11 -11 -11 -11 -12 -12 -13 -13
-5 -6 -7 -7 -7 -8 -8 -8 -9 -9 -10 -10 -10 -11 -11 -12 -11 -11 -11 -12 -12 -12 -12 -12 -11 -10 -10 -10 -10 -10 -10 -10 -11 -11 -11 -11 -12 -12 -12 -13 -13 -13 -13 -14
-6 -7 -7 -8 -8 -9 -9 -9 -9 -9 -10 -10 -10 -10 -11 -12 -12 -13 -13 -13 -13 -13 -13 -13 -13 -12 -12 -12 -12 -11 -11 -12 -12 -12 -12 -12 -13 -13 -13 -14 -14 -14 -14 -15
-7 -7 -8 -8 -9 -9 -10 -10 -10 -11 -11 -11 -12 -13 -13 -13 -13 -13 -13 -14 -14 -14 -14 -14 -13 -13 -13 -13 -13 -13 -13 -13 -14 -14 -14 -14 -14 -15 -15 -15 -15 -15 -16 -16
-7 -7 -8 -8 -8 -9 -9 -10 -10 -11 -11 -12 -12 -11 -12 -12 -13 -14 -15 -15 -16 -15 -15 -15 -14 -14 -14 -14 -14 -14 -14 -14 -14 -15 -15 -15 -15 -15 -16 -16 -16 -17 -17 -17
-7 -7 -8 -8 -8 -9 -9 -10 -10 -11 -11 -12 -13 -13 -13 -13 -13 -14 -14 -14 -14 -15 -15 -15 -15 -15 -15 -15 -15 -16 -16 -16 -15 -16 -16 -16 -16 -16 -17 -17 -18 -18 -18 -18
-6 -7 -7 -7 -7 -8 -8 -9 -9 -10 -11 -11 -12 -13 -14 -14 -14 -14 -14 -14 -15 -15 -16 -16 -15 -15 -16 -16 -16 -16 -16 -16 -17 -17 -17 -17 -17 -17 -18 -19 -19 -19 -19 -19
-7 -7 -7 -8 -8 -9 -9 -9 -9 -10 -11 -12 -13 -13 -14 -14 -14 -14 -14 -14 -15 -15 -15 -16 -17 -17 -17 -16 -16 -16 -16 -17 -17 -18 -18 -18 -18 -18 -19 -20 -20 -20 -20 -20

GFSNGP_925_temp_096.txt.gz
Temp
14 15 15 16 14 15 16 15 14 16 16 18 17 18 17 18 18 20 21 21 20 18 19 17 16 15 14 14 13 13 13 13 14 13 12 12 12 12 12 12 12 12 12 12
13 14 14 14 15 16 17 17 17 18 17 15 16 16 16 16 16 20 19 18 18 19 18 18 17 16 15 14 14 13 13 14 14 13 13 13 12 12 12 12 12 12 11 12
11 12 13 13 15 16 16 13 15 15 13 14 14 15 14 14 16 17 16 15 15 14 14 14 14 17 16 15 14 13 13 13 13 13 13 13 13 12 12 12 12 11 11 11
10 11 10 15 16 15 13 13 13 13 12 13 13 14 14 14 13 13 13 12 11 10 11 9 10 12 15 17 15 14 14 13 13 13 13 13 13 13 13 12 12 12 12 12
9 9 12 14 13 13 14 12 13 12 12 12 13 15 13 14 12 10 10 10 9 8 8 7 8 8 9 10 14 15 15 15 14 13 13 13 13 13 13 13 13 12 12 12
8 10 10 12 14 14 14 12 12 11 12 12 12 12 12 13 10 9 9 8 8 7 6 6 6 7 6 6 6 7 7 9 13 14 13 13 13 13 13 13 13 12 12 12
9 9 11 11 12 12 12 10 10 10 11 11 10 9 8 8 8 7 7 6 7 6 5 4 4 5 5 4 4 4 4 5 8 12 14 14 13 13 13 12 11 8 7 6
9 9 10 11 11 11 9 10 10 9 10 10 9 9 8 7 6 5 5 5 4 4 3 2 2 3 3 2 2 2 2 2 2 3 6 8 11 9 8 8 4 1 -0 -1
10 10 10 9 10 10 10 9 9 8 8 8 7 7 6 5 4 4 3 2 2 2 2 1 1 0 1 -0 -0 1 0 -1 -1 0 0 1 2 2 2 1 -1 -2 -2 -3
10 10 9 9 9 9 9 8 8 7 7 6 5 5 4 3 2 1 1 0 0 0 0 -0 -0 -0 -1 -1 -1 -2 -2 -2 -3 -3 -3 -2 -2 -2 -1 -1 -1 -2 -3 -4
9 7 8 7 8 8 7 7 6 5 5 4 4 3 2 1 0 -0 -1 -1 -2 -1 -1 -2 -1 -1 -1 -1 -2 -3 -3 -3 -3 -4 -4 -4 -4 -4 -4 -3 -3 -3 -4 -4
6 5 6 6 6 7 6 6 5 4 3 2 2 1 0 -1 -2 -2 -2 -3 -3 -3 -3 -3 -2 -2 -2 -2 -2 -3 -4 -4 -4 -4 -4 -4 -4 -4 -4 -4 -3 -4 -4 -4
4 3 4 5 5 5 5 4 3 1 1 1 0 -1 -2 -2 -3 -3 -4 -4 -4 -4 -4 -4 -3 -3 -3 -4 -4 -5 -5 -5 -5 -5 -5 -5 -5 -5 -5 -5 -5 -5 -5 -5
3 5 6 5 3 3 3 3 1 -0 -2 -2 -2 -3 -4 -4 -4 -4 -5 -5 -5 -5 -5 -5 -4 -4 -3 -4 -5 -5 -6 -6 -7 -7 -7 -6 -6 -6 -6 -6 -7 -7 -7 -7
1 3 4 4 3 1 1 1 0 -1 -2 -4 -4 -5 -5 -5 -5 -6 -6 -6 -6 -6 -6 -5 -5 -5 -4 -5 -5 -6 -6 -7 -7 -7 -7 -8 -8 -8 -8 -8 -9 -9 -10 -9
1 1 1 1 1 1 -0 -1 -2 -2 -3 -4 -5 -5 -6 -6 -7 -7 -8 -7 -7 -7 -7 -7 -6 -6 -5 -5 -6 -6 -7 -7 -8 -8 -8 -9 -9 -9 -8 -9 -9 -10 -11 -11
-0 -1 -1 -1 -1 -2 -3 -4 -4 -4 -5 -5 -5 -6 -7 -7 -7 -8 -8 -9 -9 -8 -8 -7 -7 -6 -6 -6 -6 -7 -7 -8 -8 -9 -9 -10 -10 -10 -10 -10 -11 -12 -13 -12
-4 -4 -4 -3 -3 -3 -4 -5 -6 -6 -6 -8 -8 -9 -9 -9 -10 -10 -11 -10 -10 -9 -9 -9 -8 -7 -7 -7 -7 -8 -8 -8 -9 -9 -10 -10 -11 -11 -11 -12 -13 -13 -13 -13
-6 -6 -6 -5 -6 -6 -6 -6 -7 -8 -9 -10 -10 -11 -11 -12 -12 -12 -11 -11 -11 -11 -10 -9 -9 -9 -9 -8 -8 -9 -9 -10 -10 -10 -11 -11 -12 -12 -12 -13 -13 -14 -14 -14
-7 -7 -8 -9 -9 -9 -10 -11 -10 -11 -11 -11 -11 -12 -12 -13 -12 -12 -12 -13 -12 -12 -11 -10 -10 -10 -10 -9 -9 -10 -10 -11 -11 -12 -12 -12 -13 -13 -13 -13 -13 -14 -14 -15
-10 -10 -10 -11 -11 -11 -11 -11 -11 -12 -12 -12 -13 -13 -13 -13 -13 -13 -13 -13 -13 -12 -11 -11 -11 -11 -11 -11 -11 -11 -12 -12 -12 -13 -13 -13 -13 -13 -14 -14 -14 -15 -15 -16
-10 -11 -11 -11 -11 -11 -11 -11 -12 -12 -12 -12 -13 -13 -13 -14 -14 -14 -14 -14 -13 -13 -13 -13 -12 -12 -11 -11 -12 -12 -12 -13 -13 -13 -13 -14 -14 -14 -15 -15 -15 -15 -16 -16
-10 -11 -11 -12 -12 -12 -12 -12 -12 -12 -13 -13 -13 -14 -14 -14 -14 -14 -14 -14 -14 -13 -13 -13 -13 -12 -12 -13 -13 -13 -13 -13 -14 -14 -14 -14 -15 -15 -16 -16 -16 -16 -17 -17
-10 -11 -11 -11 -11 -11 -12 -12 -12 -13 -13 -13 -13 -14 -14 -15 -15 -15 -15 -14 -14 -14 -14 -14 -14 -13 -13 -14 -14 -14 -15 -15 -15 -15 -16 -16 -16 -16 -17 -17 -17 -17 -18 -18
-10 -10 -10 -11 -12 -12 -12 -12 -13 -13 -13 -14 -14 -14 -14 -14 -14 -15 -15 -15 -15 -15 -15 -15 -15 -15 -15 -15 -15 -15 -16 -16 -16 -16 -17 -17 -17 -17 -18 -18 -18 -18 -18 -19
-9 -9 -10 -10 -10 -11 -11 -12 -13 -13 -14 -14 -14 -14 -14 -14 -15 -15 -15 -15 -15 -15 -16 -16 -16 -16 -16 -16 -16 -16 -17 -17 -17 -17 -17 -18 -18 -18 -19 -19 -19 -19 -20 -20
-9 -9 -9 -10 -10 -10 -11 -11 -12 -13 -13 -14 -14 -14 -14 -14 -15 -15 -15 -15 -16 -16 -16 -16 -16 -17 -17 -17 -17 -17 -18 -18 -18 -18 -18 -19 -19 -19 -19 -20 -20 -20 -20 -20